Skip Navigation Links
NOAA logo - Click to go to the NOAA homepage
NOAA's National Weather Service
Alaska Aviation Weather Unit
  NWS logo - Click to go to the NWS homepage
Left Navbar Graphic     21 AKDT = 05 GMT

   
NOAA is celebrating 200 years of science, service, and stewardship. Visit the NOAA 200th celebration Web site to learn more.
USA.gov is the U.S. Government's official Web portal to all Federal, state and local government Web resources and services.
Facebook
NWS on Facebook

Important Change Regarding the AAWU Web Presence

 

Over the last several months, the AAWU has been working to navigate its webpages to a nationally supported server. Security, as well as other needs, have necessitated the change.  In the process, we have made an effort to enhance the functionality of our website, as well as some of our products. As of June 27, 2017, aawu.arh.noaa.gov will be discontinued. The new AAWU web address is weather.gov/aawu. It is now live and will run in-parallel with the old site until it is discontinued. Please send any feedback or questions regarding the new webpages to nws.ar.aawu.webauthors@noaa.gov.  Thank you for your patience during this time of transition.
AAWU Home :: Display TAF Add Bookmark
METAR PAMM 252356Z AUTO 23009KT 10SM OVC021 13/09 A3003 RMK AO2
 SLP159 T01280089 10139 20122 58001=

METAR PAMM 260056Z AUTO 23010KT 10SM OVC021 13/09 A3002 RMK AO2
 RAB06E17 SLP156 P0000 T01280089=

METAR PAMM 260156Z AUTO 21007KT 10SM SCT019 OVC050 13/09 A3001 RMK AO2
     SLP154 T01280094=

METAR PAMM 260256Z AUTO VRB03KT 10SM OVC055 13/08 A3001 RMK AO2 SLP154
     60000 T01280083 56006=

METAR PAMM 260456Z AUTO 21003KT 6SM -RA BR FEW024 BKN030 OVC036 11/10
     A3001 RMK AO2 SLP152 P0002 T01060100=

SPECI PAMM 260523Z AUTO 18003KT 10SM -RA FEW022 OVC028 11/09 A3001
 RMK AO2 P0000=


NOAA's National Weather Service
Alaska Aviation Weather Unit
6930 Sand Lake Road
Anchorage, AK 99502-1845
Disclaimer
Credits
Glossary
Privacy Policy
About Us
Career Opportunities
Contact AAWU Internet Services Site last modified: April, 17th 2012